Regional Weather Roundup
Issued by NWS

Home | Current Version | Previous Version | Text Only | Print | Product List | Glossary On
Versions: 1 2 3 4 5 6 7 8 9 10 11 12 13 14 15 16 17 18 19 20 21 22 23 24 25 26 27 28 29 30 31 32 33 34 35 36 37 38 39 40 41 42 43 44 45 46 47 48 49 50
000
ASUS42 KKEY 051910
RWRKEY

FLORIDA REGIONAL WEATHER ROUNDUP FOR THE FLORIDA KEYS
NATIONAL WEATHER SERVICE KEY WEST FLORIDA
300 PM EDT TUE MAY 05 2015

...SOUTH FLORIDA AND THE KEYS...

CITY           SKY/WX    TMP DP  RH WIND       PRES   REMARKS
FORT MYERS     PTSUNNY   83  65  54 E9        30.07F
SW REGIONAL AP PTSUNNY   81  65  58 E14G21    30.08F
NAPLES         CLOUDY    82  66  58 E13       30.07F
MIAMI          CLOUDY    75  69  81 NE7       30.07F
WEST KENDALL   LGT RAIN  75  69  81 NE12      30.07F
HOMESTEAD      DRIZZLE   73  68  83 NE10      30.06F
MARATHON       CLOUDY    78  70  76 NE14      30.06F
BOCA CHICA NAS CLOUDY    74  69  85 E13       30.06F
KEY WEST INTL  CLOUDY    76  70  82 E12G18    30.06F

...INTERNATIONAL WEATHER...

CITY           SKY/WX    TMP DP  RH WIND       PRES   REMARKS
NASSAU BAHAMAS PTSUNNY   77  70  78 E5        30.03F
CANCUN MEXICO  PTSUNNY   82  70  65 SE13      29.98F
COZUMEL MEXICO PTSUNNY   84  72  65 SE13      29.96F

ADJACENT COASTAL WATERS...

STATION/POSITION TIME  SKY/WX   TEMP    WIND        PRES    WAVE
                                AIR SEA DIR/SP/G            HT/PER
                 (UTC)          (F)     (DEG/KT/KT) (MB)    (FT/S)
PULASKI SHOAL LI 1800            77      90/ 19/ 20 1017.9F
SAND KEY         1850            75      80/ 18/ 20 1017.7F
SOMBRERO KEY     1900            75      70/ 15/ 16 1018.3F
LONG KEY         1800            74 76   50/ 12/ 14 1019.4F
MOLASSES REEF    1900            75 78   90/  7/  8 1017.6F
FOWEY ROCKS      NOT AVBL

$$


USA.gov is the U.S. government's official web portal to all federal, state and local government web resources and services.